TimeEST,TemperatureF,Dew PointF,Humidity,Sea Level PressureIn,VisibilityMPH,Wind Direction,Wind SpeedMPH,Gust SpeedMPH,PrecipitationIn,Events,Conditions,WindDirDegrees,DateUTC
12:54 AM,10.9,3.9,73,30.40,10.0,Calm,Calm,-,N/A,,Clear,0,2013-01-27 05:54:00
1:54 AM,8.1,3.9,83,30.41,10.0,South,3.5,-,N/A,,Clear,190,2013-01-27 06:54:00
2:54 AM,10.0,3.9,76,30.43,10.0,WSW,4.6,-,N/A,,Clear,240,2013-01-27 07:54:00
3:54 AM,12.0,3.9,70,30.43,10.0,SW,3.5,-,N/A,,Clear,230,2013-01-27 08:54:00
4:54 AM,9.0,3.9,80,30.44,10.0,WSW,3.5,-,N/A,,Clear,240,2013-01-27 09:54:00
5:54 AM,8.1,3.0,80,30.46,10.0,Calm,Calm,-,N/A,,Scattered Clouds,0,2013-01-27 10:54:00
6:35 AM,8.6,3.2,79,30.42,10.0,Calm,Calm,-,N/A,,Mostly Cloudy,0,2013-01-27 11:35:00
6:54 AM,8.1,3.9,83,30.49,10.0,Calm,Calm,-,N/A,,Overcast,0,2013-01-27 11:54:00
7:27 AM,10.4,5.0,79,30.44,9.0,Variable,3.5,-,N/A,,Scattered Clouds,0,2013-01-27 12:27:00
7:54 AM,10.9,7.0,84,30.51,9.0,Calm,Calm,-,N/A,,Clear,0,2013-01-27 12:54:00
8:54 AM,12.9,7.0,77,30.53,8.0,SW,3.5,-,N/A,,Clear,220,2013-01-27 13:54:00
9:45 AM,15.8,8.6,73,30.50,10.0,SSW,4.6,-,N/A,,Mostly Cloudy,210,2013-01-27 14:45:00
9:54 AM,16.0,9.0,74,30.55,10.0,South,3.5,-,N/A,,Mostly Cloudy,190,2013-01-27 14:54:00
10:08 AM,17.6,10.4,73,30.50,10.0,SW,3.5,-,N/A,,Scattered Clouds,230,2013-01-27 15:08:00
10:54 AM,21.9,10.9,63,30.56,10.0,SSW,5.8,-,0.01,,Clear,210,2013-01-27 15:54:00
11:54 AM,24.1,12.9,62,30.53,10.0,WNW,8.1,-,N/A,,Partly Cloudy,300,2013-01-27 16:54:00
12:54 PM,27.0,12.0,53,30.51,10.0,NNW,8.1,-,0.00,,Clear,340,2013-01-27 17:54:00
1:54 PM,28.0,12.0,51,30.49,10.0,NNW,5.8,-,N/A,,Clear,340,2013-01-27 18:54:00
2:54 PM,28.0,10.9,49,30.48,10.0,North,6.9,-,N/A,,Clear,350,2013-01-27 19:54:00
3:54 PM,28.9,12.0,49,30.49,10.0,North,5.8,-,0.01,,Clear,360,2013-01-27 20:54:00
4:54 PM,27.0,10.9,51,30.49,10.0,North,3.5,-,N/A,,Clear,360,2013-01-27 21:54:00
5:54 PM,26.1,10.9,53,30.51,10.0,Calm,Calm,-,N/A,,Clear,0,2013-01-27 22:54:00
6:54 PM,23.0,10.9,60,30.50,10.0,Calm,Calm,-,N/A,,Clear,0,2013-01-27 23:54:00
7:54 PM,21.9,10.9,63,30.49,10.0,ESE,3.5,-,N/A,,Clear,110,2013-01-28 00:54:00
8:54 PM,21.9,10.0,60,30.48,10.0,East,5.8,-,N/A,,Clear,100,2013-01-28 01:54:00
9:54 PM,19.9,10.0,65,30.47,10.0,East,5.8,-,N/A,,Clear,100,2013-01-28 02:54:00
10:54 PM,21.9,10.0,60,30.46,10.0,ESE,3.5,-,N/A,,Clear,110,2013-01-28 03:54:00
11:54 PM,28.0,10.0,47,30.46,10.0,ESE,3.5,-,N/A,,Clear,110,2013-01-28 04:54:00